Location: *
(33.8649°S, 62.1526°E)
Time: 04:36:58
(UTC+00:00)

Meteor 1-13 Rocket - Pass Details

Date: 17 January 2021
Orbit: 830 x 912 km, 81.3° (Epoch: 27 February)

Event Time Altitude Azimuth Distance (km) Brightness Sun altitude
Exits shadow 22:44:31 49° 333° (NNW) 1,162 4.5 -23.2°
Maximum altitude 22:46:10 75° 262° (W) 952 4.3 -23.0°
Drops below altitude 10° 22:52:11 10° 176° (S) 2,627 7.4 -22.1°
Sets 22:54:41 0° 173° (S) 3,572 8.3 -21.8°
